Allentown, PA

11:27 PM EDT on April 21, 2018 (GMT -0400)
Lehigh Valley International

Weather History for KABE - August, 2013

Change the Weather History Date:

Saturday, August 3, 2013

  Actual Average Record
Temperature  
Mean Temperature 69 °F 73 °F  
Max Temperature 76 °F 84 °F 97 °F (1930)
Min Temperature 62 °F 62 °F 48 °F (1927)
Degree Days  
Heating Degree Days 0 0  
Month to date heating degree days 0 0  
Since 1 June heating degree days 9 36  
Since 1 July heating degree days 0 3  
Cooling Degree Days 4 8  
Month to date cooling degree days 17 24  
Year to date cooling degree days 660 489  
Since 1 June cooling degree days 588 444  
Growing Degree Days 18 (Base 50)    
Moisture  
Dew Point 64 °F    
Average Humidity 81    
Maximum Humidity 93    
Minimum Humidity 69    
Precipitation  
Precipitation 0.21 in 0.14 in 1.77 in (1971)
Month to date precipitation 0.91 0.43  
Year to date precipitation 25.46 26.51  
Snow  
Snow 0.00 in 0.00 in 0.00 in (2002)
Month to date snowfall 0.0 0.0  
Since 1 June snowfall 0.0 0.0  
Since 1 July snowfall 0.0 0.0  
Snow Depth 0.00 in    
Sea Level Pressure  
Sea Level Pressure 29.91 in    
Wind  
Wind Speed 5 mph (WSW)    
Max Wind Speed 16 mph    
Max Gust Speed 21 mph    
Visibility 9 miles    
Events Rain    
T = Trace of Precipitation, MM = Missing Value Source: NWS Daily Summary

Daily Weather History Graph

Daily Weather History Graph

Search for Another Location

Airport or City:

Astronomy

Aug. 03, 2013 Rise Set
Actual Time 6:00 AM EDT 8:14 PM EDT
Civil Twilight 5:30 AM EDT 8:44 PM EDT
Nautical Twilight 4:52 AM EDT 9:22 PM EDT
Astronomical Twilight 4:11 AM EDT 10:03 PM EDT
Moon 3:07 AM EDT (8/3) 5:55 PM EDT (8/3)
Length of Visible Light 15h 14m
Length of Day
14h 13m
Waning Crescent, 9% of the Moon is Illuminated
Aug 3
Waning Crescent
Aug 6
New
Aug 14
First Quarter
Aug 20
Full
Aug 28
Last Quarter

Hourly Weather History & Observations

Time (EDT) Temp. Dew Point Humidity Pressure Visibility Wind Dir Wind Speed Gust Speed Precip Events Conditions
12:51 AM 66.0 °F 57.0 °F 73% 29.92 in 10.0 mi Calm Calm - N/A   Clear
1:51 AM 64.0 °F 59.0 °F 84% 29.91 in 10.0 mi SSW 3.5 mph - N/A   Mostly Cloudy
2:51 AM 66.0 °F 60.1 °F 81% 29.89 in 10.0 mi Calm Calm - N/A   Mostly Cloudy
3:51 AM 64.9 °F 61.0 °F 87% 29.89 in 10.0 mi Calm Calm - N/A   Clear
4:51 AM 64.9 °F 61.0 °F 87% 29.90 in 10.0 mi NW 3.5 mph - N/A   Partly Cloudy
5:51 AM 64.9 °F 62.1 °F 90% 29.91 in 10.0 mi Calm Calm - N/A   Mostly Cloudy
6:51 AM 64.9 °F 62.1 °F 90% 29.92 in 5.0 mi Calm Calm - 0.04 in Rain Light Rain
7:51 AM 64.9 °F 63.0 °F 93% 29.94 in 6.0 mi West 3.5 mph - 0.01 in Rain Light Rain
8:51 AM 66.9 °F 63.0 °F 87% 29.94 in 8.0 mi West 6.9 mph - 0.00 in Rain Light Rain
9:51 AM 68.0 °F 64.9 °F 90% 29.93 in 5.0 mi SW 5.8 mph - 0.03 in Rain Light Rain
10:51 AM 69.1 °F 66.0 °F 90% 29.94 in 4.0 mi WNW 4.6 mph - 0.04 in Rain Light Rain
11:51 AM 69.1 °F 66.0 °F 90% 29.93 in 4.0 mi SW 5.8 mph - 0.07 in Rain Light Rain
12:51 PM 70.0 °F 66.0 °F 87% 29.93 in 10.0 mi SW 5.8 mph - 0.02 in Rain Light Rain
1:33 PM 71.6 °F 66.2 °F 83% 29.93 in 10.0 mi SW 10.4 mph - 0.00 in   Mostly Cloudy
1:51 PM 73.0 °F 66.9 °F 81% 29.93 in 10.0 mi WSW 8.1 mph - 0.00 in   Mostly Cloudy
2:17 PM 75.2 °F 66.2 °F 73% 29.92 in 10.0 mi SW 10.4 mph - N/A   Mostly Cloudy
2:51 PM 73.9 °F 66.0 °F 76% 29.91 in 10.0 mi SW 11.5 mph - N/A   Mostly Cloudy
3:51 PM 73.0 °F 64.9 °F 76% 29.90 in 10.0 mi SW 11.5 mph 20.7 mph N/A   Overcast
4:51 PM 73.9 °F 64.9 °F 73% 29.88 in 10.0 mi WSW 15.0 mph - N/A   Scattered Clouds
5:51 PM 75.0 °F 64.0 °F 69% 29.88 in 10.0 mi WSW 12.7 mph - N/A   Clear
6:51 PM 73.9 °F 64.9 °F 73% 29.88 in 10.0 mi WSW 8.1 mph - N/A   Overcast
7:51 PM 72.0 °F 66.0 °F 81% 29.89 in 10.0 mi WSW 8.1 mph - N/A   Clear
8:51 PM 70.0 °F 66.0 °F 87% 29.90 in 10.0 mi Calm Calm - N/A   Scattered Clouds
9:51 PM 68.0 °F 64.9 °F 90% 29.91 in 10.0 mi Calm Calm - N/A   Clear
10:51 PM 64.9 °F 63.0 °F 93% 29.90 in 9.0 mi Calm Calm - N/A   Clear
11:51 PM 64.0 °F 63.0 °F 96% 29.91 in 5.0 mi SW 3.5 mph - N/A   Partly Cloudy